Wind_Speed
8 4 7 13 15 17 17 17 18 15 11 12 15 7 8 6 6 6 8 7 7 7 6 5 23 23 17 10 7 2 3 12 17 24 19 19 22 23 22 23 24 20 17 25
6 11 14 17 19 14 14 16 9 11 11 15 13 10 5 5 5 5 7 8 10 8 8 10 18 20 18 15 8 5 4 7 12 18 25 24 20 18 25 29 27 25 19 19
10 11 16 18 13 11 8 7 6 10 15 17 12 11 5 3 5 10 12 8 10 12 12 11 16 23 22 19 13 9 8 7 9 14 16 17 17 15 17 23 22 15 31 27
10 11 16 15 11 4 8 8 12 14 10 6 5 6 5 4 8 13 20 17 9 10 11 11 8 16 26 21 16 12 8 10 9 10 12 22 24 21 24 20 20 25 27 24
16 12 12 15 13 7 10 6 4 8 14 6 12 3 5 5 15 18 16 21 8 8 10 10 10 17 17 16 17 14 8 7 9 10 10 11 13 18 20 21 20 25 30 29
15 13 10 10 16 12 10 3 5 5 3 4 11 5 16 11 15 19 6 10 11 11 10 10 15 20 14 9 13 12 12 11 11 10 11 11 11 11 9 4 11 16 18 24
6 9 11 12 6 12 16 4 2 3 1 9 2 5 14 16 18 25 16 11 11 11 14 13 11 10 15 11 14 17 18 16 13 10 10 11 10 12 13 7 15 15 13 16
3 11 4 1 2 7 10 4 5 6 4 7 4 6 8 12 19 10 12 11 10 12 11 11 11 11 16 19 15 16 9 5 13 16 12 11 14 13 13 14 16 16 13 10
1 5 2 5 5 7 2 6 19 4 5 4 5 7 9 8 18 7 8 10 9 9 9 10 9 17 21 21 22 17 14 11 8 8 11 14 16 17 17 18 19 20 19 19
3 6 9 5 7 9 9 2 1 1 3 4 5 6 4 2 7 6 9 6 7 6 8 7 8 12 17 18 25 26 23 22 19 18 20 19 15 16 18 20 21 22 21 22
3 2 6 7 2 3 3 2 3 4 4 4 2 4 3 4 3 6 10 10 3 8 5 6 7 11 9 3 17 23 25 24 22 24 24 22 22 21 21 20 21 22 23 24
0 3 2 11 15 6 3 5 3 3 7 2 4 7 7 2 4 6 6 14 9 12 11 9 9 13 13 11 12 13 12 10 7 7 13 22 25 25 24 23 25 22 21 25
6 1 3 6 0 2 3 5 7 6 2 3 1 4 2 12 2 2 1 6 16 11 14 15 17 11 12 18 19 19 18 16 13 12 11 10 14 19 24 28 26 25 26 26
3 3 5 5 8 4 3 9 9 5 4 5 10 13 10 9 9 5 9 12 8 4 7 10 6 16 4 1 4 6 7 4 3 3 4 10 14 18 23 27 28 27 26 26
1 3 5 9 13 14 15 17 11 12 14 7 13 11 4 8 2 7 2 6 11 12 11 8 11 5 12 4 2 2 1 2 2 5 7 12 19 23 30 30 32 36 31 29
1 2 6 7 12 12 15 18 14 16 18 11 14 11 14 6 8 6 3 7 6 9 11 15 15 9 6 6 7 9 11 13 13 14 14 16 21 26 31 33 38 39 30 29
3 2 5 4 10 14 7 10 7 9 6 5 2 10 13 11 9 8 6 7 9 13 14 14 8 7 10 16 18 17 16 12 14 17 21 22 23 25 27 29 29 33 29 28
3 3 2 5 7 3 6 11 9 6 6 1 9 10 12 12 13 11 13 15 8 14 15 15 13 13 21 19 12 17 18 16 15 21 24 24 25 25 25 27 29 28 29 29
2 0 2 1 2 10 4 9 9 7 5 10 13 14 15 16 17 12 8 8 14 16 16 16 23 24 22 21 24 25 20 17 19 22 26 29 30 28 27 26 26 28 23 32
3 2 4 3 4 3 5 14 14 13 5 13 19 14 15 17 14 11 13 17 17 17 23 26 35 36 33 30 28 25 22 21 22 24 29 31 30 30 28 29 30 28 24 25
0 2 4 4 4 5 12 13 11 6 6 17 16 15 17 14 12 25 20 22 18 23 30 33 31 30 31 29 26 25 19 18 24 29 28 29 29 31 29 27 25 25 29 26
4 1 3 1 2 4 12 5 3 5 10 13 15 18 20 21 23 21 28 25 28 29 29 33 27 27 31 29 26 23 20 25 27 26 25 26 29 33 28 26 27 29 29 19
2 2 2 1 4 2 5 4 5 8 13 15 18 20 21 24 22 27 29 31 26 25 21 29 25 29 32 30 28 26 31 26 26 25 27 27 29 24 24 24 23 23 19 19
3 0 2 5 4 10 13 6 12 15 17 20 22 22 18 22 28 29 29 26 24 23 22 29 26 21 24 29 29 32 29 28 26 26 26 25 25 24 24 22 23 23 19 19
2 4 5 5 4 15 5 13 17 21 21 22 21 15 20 25 27 26 26 26 24 23 23 29 20 19 23 29 29 29 29 26 26 25 24 23 21 21 21 23 23 22 24 23
2 1 1 4 8 8 16 17 22 20 21 23 17 18 25 25 28 26 25 24 22 23 25 23 23 24 29 30 32 29 28 27 25 21 22 21 20 21 22 21 21 25 29 32
Wind_Direction
276 227 232 237 236 236 246 260 271 275 294 325 315 214 172 230 235 215 204 209 201 206 211 169 158 143 137 133 138 169 224 236 208 196 206 216 215 222 211 213 197 206 204 219
264 246 251 249 255 266 278 282 288 310 320 312 299 284 228 224 246 216 231 223 205 203 194 147 157 147 146 148 155 170 227 243 243 227 207 210 222 222 232 227 216 223 219 235
252 261 278 276 265 268 291 276 298 291 298 294 298 293 230 252 288 286 268 209 212 194 186 183 160 167 157 154 163 177 206 240 248 248 235 210 193 215 222 232 222 233 245 228
264 269 276 278 269 321 291 290 305 328 283 257 322 273 275 277 260 254 248 243 210 189 187 189 156 140 150 161 162 166 195 241 256 252 253 237 240 194 220 220 241 226 250 251
269 274 285 293 289 228 271 285 343 330 318 343 301 330 283 274 279 275 273 232 184 126 119 122 138 140 147 148 154 162 173 213 234 242 233 233 259 236 203 212 218 240 241 247
273 280 281 308 325 337 235 241 360 331 299 295 269 259 285 262 264 278 256 148 143 124 113 110 111 117 121 151 162 181 180 214 233 246 256 263 270 286 285 213 226 231 241 246
303 305 306 323 342 352 21 333 335 308 293 247 156 324 260 314 282 252 232 160 150 138 126 128 131 143 165 172 197 207 195 203 215 242 263 266 272 280 283 291 265 259 249 268
175 297 257 360 126 174 307 313 274 231 218 274 329 251 248 305 318 37 141 135 124 129 142 151 159 163 166 182 170 153 159 209 224 220 230 266 276 276 280 276 278 281 279 263
277 238 106 225 187 166 162 229 234 353 301 315 230 245 276 349 338 58 87 99 122 141 162 169 157 162 175 177 174 187 201 224 244 254 246 257 257 260 277 288 285 277 275 266
10 304 288 335 207 184 199 188 118 233 208 229 250 289 177 340 344 356 352 143 129 117 99 133 154 174 177 185 189 188 191 200 215 237 249 251 249 258 266 269 271 281 284 278
57 124 300 319 219 301 345 320 54 293 202 198 274 268 223 97 48 1 335 358 93 132 147 194 180 162 164 158 208 189 196 205 216 227 238 245 249 251 252 262 265 266 277 283
202 139 226 276 296 127 272 87 62 235 283 172 137 247 324 142 290 120 289 318 340 354 345 312 201 190 180 175 175 175 172 185 202 244 254 252 246 245 253 260 262 258 266 276
178 276 342 300 138 94 160 186 192 198 50 279 191 289 8 337 6 16 98 317 310 341 343 337 343 265 186 193 209 219 217 222 223 242 263 288 306 309 297 261 254 261 268 271
147 221 229 235 275 199 298 262 280 187 207 215 229 259 271 246 216 243 214 184 230 348 330 349 217 319 336 172 171 203 190 175 206 198 267 289 285 296 304 295 277 262 259 263
57 275 320 307 301 300 296 293 263 255 250 238 266 247 278 50 99 317 2 5 352 318 291 307 289 208 270 312 325 76 144 252 265 276 270 277 287 290 292 294 283 272 261 260
107 284 308 296 289 287 302 282 279 263 312 349 342 331 357 45 1 336 331 345 275 255 282 277 264 261 268 287 266 263 254 231 235 246 253 262 271 278 282 276 265 256 256 264
320 346 344 272 332 317 299 26 20 347 116 246 17 321 340 342 345 317 257 248 241 243 250 262 280 286 284 283 287 272 265 242 241 249 257 261 262 261 259 264 275 246 251 260
254 308 314 285 316 297 111 69 35 320 284 282 348 356 335 338 329 318 311 291 338 333 320 314 305 293 287 276 270 270 264 259 260 261 255 250 255 257 255 264 266 276 264 261
130 122 315 253 317 274 40 15 353 334 330 35 356 333 327 325 316 302 282 335 320 314 309 301 295 282 281 282 278 259 239 238 251 257 259 256 253 254 254 255 263 266 282 259
277 140 134 348 312 269 25 353 339 301 254 0 347 327 327 332 308 304 326 304 292 287 289 288 282 281 282 279 272 257 242 238 239 248 255 255 253 253 249 246 254 260 269 270
104 119 195 219 234 281 11 353 329 51 294 338 336 330 319 313 292 298 304 301 290 287 292 285 281 277 274 277 270 245 234 238 248 253 252 253 248 249 249 254 250 250 256 264
177 189 217 196 240 289 10 14 44 282 324 320 319 314 307 299 300 303 301 297 295 291 286 283 275 270 266 264 261 258 246 251 255 249 244 244 250 250 245 244 244 244 246 254
100 89 246 82 238 43 8 294 323 329 326 319 311 308 298 297 308 309 303 298 293 289 283 279 271 272 267 264 258 252 250 249 247 245 238 238 242 246 244 241 244 246 239 244
135 319 70 357 324 2 321 333 341 330 320 314 302 293 322 319 306 304 303 300 296 291 285 281 273 267 267 261 256 251 250 242 238 240 239 236 236 237 238 235 234 224 224 233
351 27 335 261 297 342 273 337 319 319 314 310 309 305 317 310 300 302 304 297 292 291 288 282 273 266 263 256 253 251 247 240 240 240 239 234 223 232 239 237 228 228 228 228
18 134 252 258 326 291 290 304 303 307 315 311 313 320 328 317 308 305 301 296 294 291 286 279 270 262 259 252 252 249 240 233 232 236 229 227 229 230 228 223 224 235 242 246
Height
751 766 774 761 751 746 747 748 746 731 719 722 724 712 712 710 713 714 715 715 716 717 717 719 722 725 729 733 736 739 741 746 746 742 747 751 752 754 755 763 761 771 773 777
759 765 745 735 734 736 738 744 746 729 719 720 723 721 707 705 709 710 716 715 714 714 715 719 724 726 728 732 736 739 743 745 746 745 742 746 750 751 755 759 760 770 766 771
759 747 729 729 731 735 738 745 741 741 726 718 725 729 717 707 705 704 703 708 709 710 713 714 720 725 728 732 736 739 743 745 745 744 747 749 747 752 753 759 757 753 771 761
746 732 731 730 731 731 747 728 729 735 738 759 727 762 728 716 713 708 701 699 705 704 705 707 713 720 725 730 735 739 742 744 745 746 748 749 749 738 747 750 756 758 761 758
743 736 735 734 727 721 736 723 733 736 744 745 737 756 730 713 716 705 695 689 698 698 700 706 711 716 722 727 733 737 740 743 744 746 747 747 749 745 738 746 746 749 752 757
734 722 726 730 721 722 715 725 735 741 750 767 739 748 731 725 713 701 695 689 691 695 701 707 712 717 722 727 731 735 738 741 742 743 742 741 741 740 739 735 740 743 747 751
737 743 732 732 737 734 740 744 775 780 774 763 734 744 724 713 701 687 687 688 688 692 700 707 713 718 722 726 730 733 736 737 738 738 739 738 737 739 740 731 743 742 740 743
768 770 734 745 746 755 766 767 776 774 779 758 740 751 728 704 696 674 669 680 687 693 698 703 707 711 717 723 727 730 733 735 736 735 736 735 736 735 733 736 736 737 736 737
750 756 743 741 737 739 746 770 750 765 762 774 751 729 710 704 701 687 684 688 694 697 700 702 705 709 712 716 721 724 727 730 731 732 733 733 732 733 731 730 730 732 734 738
752 760 734 724 725 727 738 736 762 773 768 770 741 729 732 718 715 702 702 695 696 695 697 703 704 707 709 711 713 717 720 723 725 728 729 728 729 730 729 730 729 729 729 734
749 760 753 736 735 738 743 746 753 763 755 760 760 741 717 718 716 711 711 708 700 698 698 701 703 703 705 707 710 713 715 717 719 721 722 723 724 726 726 726 726 727 726 725
758 771 764 749 728 736 745 754 771 768 762 748 759 746 706 706 708 707 716 702 704 708 710 706 697 696 698 702 706 708 711 714 716 718 720 720 720 719 718 718 719 720 721 722
758 760 771 752 740 743 746 746 750 761 762 757 761 747 706 710 713 709 710 707 707 710 712 705 704 701 693 695 697 700 702 704 707 709 712 713 715 715 715 713 713 713 714 715
744 754 760 772 753 750 747 738 736 747 755 744 738 729 716 709 706 706 705 702 714 714 713 711 713 709 696 695 695 696 698 700 702 703 704 707 708 709 711 711 710 709 710 709
747 755 750 747 738 732 728 724 727 731 732 738 723 721 712 722 719 717 709 710 710 709 712 704 705 705 704 696 694 695 697 698 699 700 701 702 704 705 705 706 705 703 702 702
745 758 752 747 733 728 732 720 712 721 721 726 723 717 712 716 718 715 712 708 710 706 702 700 699 695 692 689 689 690 690 691 693 693 695 697 699 701 701 701 698 695 694 694
749 755 759 754 735 733 734 729 724 726 728 734 730 727 722 717 716 716 712 708 705 703 698 694 690 687 684 682 681 680 681 683 684 685 687 688 690 691 693 692 690 684 685 686
748 751 755 766 747 748 740 740 740 733 723 722 724 719 719 716 711 707 705 701 700 699 696 691 688 682 678 676 675 675 675 675 676 676 677 678 680 680 680 682 680 678 677 678
740 749 764 775 769 737 721 733 730 729 727 728 728 722 717 712 706 703 700 697 696 694 689 685 681 676 672 670 668 666 665 666 667 667 668 668 669 668 669 670 669 670 668 669
738 742 767 763 766 775 744 730 725 719 730 725 724 722 719 715 711 702 700 697 693 689 686 680 675 670 665 661 661 658 656 655 655 656 656 656 657 658 658 659 661 663 661 663
757 753 764 762 773 744 735 729 721 745 744 730 728 724 720 717 713 694 691 684 683 677 672 669 664 657 651 650 648 643 642 642 644 645 644 646 646 648 648 650 653 652 657 654
755 756 763 752 759 759 739 734 748 744 736 733 727 721 715 706 697 691 681 674 667 660 654 651 647 641 638 638 637 633 631 632 634 634 634 635 637 639 639 640 642 645 647 645
755 754 766 756 756 742 742 743 741 738 736 729 724 716 707 694 687 681 669 659 651 645 638 635 631 625 622 623 624 619 616 621 623 624 624 625 628 629 630 632 634 636 636 639
746 745 761 758 738 747 739 737 737 735 733 724 716 708 699 696 685 674 661 647 638 630 624 620 616 610 604 607 608 605 607 610 612 613 614 616 618 619 621 623 626 628 628 633
754 752 762 754 742 746 735 740 738 732 726 715 707 699 693 687 673 665 652 639 627 617 609 605 599 594 589 590 591 593 596 599 600 602 605 606 608 610 612 614 617 618 621 625
758 763 768 764 755 757 749 742 736 729 720 709 699 691 687 680 666 653 640 627 617 605 594 585 580 576 572 574 575 579 583 586 589 591 594 596 600 603 605 607 611 612 614 618